Other Public Products
Issued by NWS Charleston, SC

Current Version | Previous Version | Graphics & Text | Print | Product List | Glossary On
Versions: 1 2 3 4 5 6 7 8 9 10 11 12 13 14 15 16 17 18 19 20 21 22 23 24 25 26 27 28 29 30 31 32 33 34 35 36 37 38 39 40 41 42 43 44 45 46 47 48 49 50
000
FPUS82 KCHS 230027
OPUCHS

TEST...KCHS/KSAV Gateway Observations...TEST
National Weather Service Charleston SC
800 PM EDT FRI SEP 22 2017

NOTE: "fair" indicates few or no clouds below 12,000 feet with no
significant weather and/or obstructions to visibility.

SCZ050-WAZ558-NCZ071-TXZ119-213-PAZ071-DCZ001-FLZ074-172-MI076-
NYZ176-178-MAZ016-IL014-TNZ027-NJZ106-GAZ044-MD014-230100-

...Gateway Observations for Charleston International...

CITY           SKY/WX    TMP DP  RH WIND       PRES   REMARKS
Chas Airport   PTCLDY    77  72  84 SE5       29.98S
6HR MIN TEMP:  77; 6HR MAX TEMP:  89;

Seattle        PTSUNNY   67  47  48 W7        30.03S
6HR MIN TEMP:  59; 6HR MAX TEMP:  68;

Charlotte      PTCLDY    83  62  49 E8        30.02S
6HR MIN TEMP:  82; 6HR MAX TEMP:  89;

Dallas DFW     PTCLDY    90  64  42 SE10      29.87S HX  91
6HR MIN TEMP:  88; 6HR MAX TEMP:  95;

Dallas Love    PTCLDY    90  60  36 SE17      29.88S
Philladelphia  MOCLDY    78  56  46 NW7       29.96R
6HR MIN TEMP:  78; 6HR MAX TEMP:  83;

Wash National  CLOUDY    80  67  64 N3        30.00R
6HR MIN TEMP:  78; 6HR MAX TEMP:  83;

Baltimore      CLOUDY    73  66  78 CALM      29.99R
6HR MIN TEMP:  70; 6HR MAX TEMP:  82;

Miami          MOCLDY    83  79  88 N5        29.84S HX  94
6HR MIN TEMP:  77; 6HR MAX TEMP:  83; 6HR PCP:  0.14;

Detroit        PTCLDY    79  65  62 SE5       30.09F
6HR MIN TEMP:  78; 6HR MAX TEMP:  89;

Newark         MOCLDY    78  55  44 N15       29.95R
6HR MIN TEMP:  78; 6HR MAX TEMP:  85;

Laguardia      MOCLDY    77  56  48 N12G20    29.95R
6HR MIN TEMP:  77; 6HR MAX TEMP:  81;

J F K          MOCLDY    77  56  48 N18       29.95R
6HR MIN TEMP:  77; 6HR MAX TEMP:  83;

Boston Logan   DRIZZLE   60  57  89 N22G36    30.00R
6HR MIN TEMP:  59; 6HR MAX TEMP:  61; 6HR PCP:  0.02;

Ft. Lauderdale CLOUDY    81  79  94 NE7       29.84R HX  90
6HR MIN TEMP:  77; 6HR MAX TEMP:  84; 6HR PCP:  0.05;

Chicago O`Hare PTCLDY    87  63  44 S7        30.01S
6HR MIN TEMP:  87; 6HR MAX TEMP:  94;

Chicago Midway PTCLDY    91  63  39 S7        30.02R HX  92
6HR MIN TEMP:  91; 6HR MAX TEMP:  95;

Houston Bush   NOT AVBL
Houston Hobby  NOT AVBL
Nashville      PTCLDY    84  65  52 NE5       30.00S
6HR MIN TEMP:  83; 6HR MAX TEMP:  92;

Atlanta        PTCLDY    82  66  58 CALM      30.01R
6HR MIN TEMP:  82; 6HR MAX TEMP:  89;


$$

GAZ044-118-TXZ119-213-NCZ071-DCZ001-MDZ014-506-PAZ021-071-NJZ106-
NYZ176-178-MAZ106-OHZ011-021-055-MIZ076-KYZ091-ILZ014-INZ047-
MNZ060-ONZ431-230100-

...Gateway Observations for Savannah International...

CITY           SKY/WX    TMP DP  RH WIND       PRES   REMARKS
Savannah Arpt  PTCLDY    79  71  76 E10       29.97F
6HR MIN TEMP:  79; 6HR MAX TEMP:  90;

Atlanta        PTCLDY    82  66  58 CALM      30.01R
6HR MIN TEMP:  82; 6HR MAX TEMP:  89;

Charlotte      PTCLDY    83  62  49 E8        30.02S
6HR MIN TEMP:  82; 6HR MAX TEMP:  89;

Dallas DFW     PTCLDY    90  64  42 SE10      29.87S HX  91
6HR MIN TEMP:  88; 6HR MAX TEMP:  95;

Houston Bush   NOT AVBL
Wash National  CLOUDY    80  67  64 N3        30.00R
6HR MIN TEMP:  78; 6HR MAX TEMP:  83;

Wash Dulles    MOCLDY    73  66  78 CALM      30.00R
6HR MIN TEMP:  70; 6HR MAX TEMP:  83;

Baltimore      CLOUDY    73  66  78 CALM      29.99R
6HR MIN TEMP:  70; 6HR MAX TEMP:  82;

Philadelphia   MOCLDY    78  56  46 NW7       29.96R
6HR MIN TEMP:  78; 6HR MAX TEMP:  83;

Newark         MOCLDY    78  55  44 N15       29.95R
6HR MIN TEMP:  78; 6HR MAX TEMP:  85;

Laguardia      MOCLDY    77  56  48 N12G20    29.95R
6HR MIN TEMP:  77; 6HR MAX TEMP:  81;

J F K          MOCLDY    77  56  48 N18       29.95R
6HR MIN TEMP:  77; 6HR MAX TEMP:  83;

Boston         DRIZZLE   60  57  89 N22G36    30.00R
6HR MIN TEMP:  59; 6HR MAX TEMP:  61; 6HR PCP:  0.02;

Pittsburg      CLOUDY    80  54  40 N5        30.08S
6HR MIN TEMP:  80; 6HR MAX TEMP:  88;

Akron          MOCLDY    76  58  53 NE6       30.10R
6HR MIN TEMP:  76; 6HR MAX TEMP:  88;

Cleveland      PTCLDY    80  61  52 NE7       30.10S
6HR MIN TEMP:  80; 6HR MAX TEMP:  91;

Cincinnati     PTCLDY    78  69  73 CALM      30.05S
6HR MIN TEMP:  78; 6HR MAX TEMP:  89;

Columbus       CLEAR     76  66  70 E5        30.06R
Detroit        PTCLDY    79  65  62 SE5       30.09F
6HR MIN TEMP:  78; 6HR MAX TEMP:  89;

Chicago O`Hare PTCLDY    87  63  44 S7        30.01S
6HR MIN TEMP:  87; 6HR MAX TEMP:  94;

Minneapolis    PTCLDY    89  69  51 S13       29.79S HX  93
6HR MIN TEMP:  89; 6HR MAX TEMP:  94;

Indianapolis   MOCLDY    80  66  62 NE7       30.05R
6HR MIN TEMP:  80; 6HR MAX TEMP:  93; 6HR PCP: TRACE;

Toronto Canada PTCLDY    73  52  46 SE3       30.09F

$$




USA.gov is the U.S. government's official web portal to all federal, state and local government web resources and services.